Regional Weather Roundup
Issued by NWS

Home | Current Version | Previous Version | Graphics & Text | Print | Product List | Glossary On
Versions: 1 2 3 4 5 6 7 8 9 10 11 12 13 14 15 16 17 18 19 20 21 22 23 24 25 26 27 28 29 30 31 32 33 34 35 36 37 38 39 40 41 42 43 44 45 46 47 48 49 50
000
ASUS43 KOAX 041702
RWRNE

WEATHER ROUNDUP FOR NEBRASKA
NATIONAL WEATHER SERVICE OMAHA NE
1200 PM CDT TUE AUG 04 2015

NOTES: SATELLITE DATA IS BEING USED TO AUGMENT CLOUD COVER ABOVE
       12000 FEET.
       "FAIR" INDICATES FEW OR NO CLOUDS BELOW 12,000 FEET WITH NO
       SIGNIFICANT WEATHER AND/OR OBSTRUCTIONS TO VISIBILITY.

  * THESE STATIONS DO NOT REPORT WEATHER SUCH AS RAIN...SNOW OR FOG.

NEZ001>004-019>022-054>056-041800-
NEBRASKA PANHANDLE

CITY           SKY/WX    TMP DP  RH WIND       PRES   REMARKS
SCOTTSBLUFF    MOSUNNY   73  57  57 SE10      30.01S
ALLIANCE       MOSUNNY   68  62  81 SE16G25   30.02S
CHADRON        MOSUNNY   78  61  55 SE21G29   29.96R
KIMBALL        PTSUNNY   77  50  39 NW8       30.04S
SIDNEY         MOSUNNY   77  56  48 NE8       30.02F
$$

NEZ057>060-069>072-079>082-041800-
SOUTHWEST NEBRASKA

CITY           SKY/WX    TMP DP  RH WIND       PRES   REMARKS
NORTH PLATTE   CLOUDY    68  64  87 E18G25    29.96F
IMPERIAL       CLOUDY    76  65  68 E14       29.96S
LEXINGTON      PTSUNNY   76  67  74 SE17G25   29.97F
MCCOOK         TSTM      69  67  93 E16       29.94F FOG
$$

NEZ005>010-023>029-035>040-094-041800-
NORTH CENTRAL NEBRASKA

CITY           SKY/WX    TMP DP  RH WIND       PRES   REMARKS
AINSWORTH      PTSUNNY   78  62  57 S24       29.92F
BROKEN BOW     MOSUNNY   78  62  57 SE14G25   29.98F
O`NEILL        CLOUDY    73  65  75 S18       29.91F
ORD            MOSUNNY   76  62  62 SE14G21   29.95F
$$

NEZ041-046>049-061>064-073>077-083>087-041800-
SOUTH CENTRAL NEBRASKA

CITY           SKY/WX    TMP DP  RH WIND       PRES   REMARKS
GRAND ISLAND   PTSUNNY   75  65  70 E14       29.99F
AURORA         PTSUNNY   75  68  78 SE12      29.98F
HASTINGS       PTSUNNY   76  64  66 E15G26    29.98F
HEBRON         CLOUDY    76  66  70 SE14G20   29.97F
HOLDREGE       MOSUNNY   75  63  66 E18G24    29.98S
KEARNEY *      PTSUNNY   75  63  64 E17       29.98S
YORK           PTSUNNY   75  68  78 SE10      29.98F
$$

NEZ011>018-030>034-042>045-041800-
NORTHEAST NEBRASKA

CITY           SKY/WX    TMP DP  RH WIND       PRES   REMARKS
NORFOLK        CLOUDY    69  65  86 SE9       29.97F
ALBION         PTSUNNY   67  65  91 SE7       29.98F
BLAIR          CLOUDY    67  64  90 SE7       29.99F
COLUMBUS *     CLOUDY    70  63  78 E7        29.99F
FREMONT        CLOUDY    69  64  85 SE14      29.96F
TEKAMAH        CLOUDY    70  64  81 NE8       29.98F
WAYNE          CLOUDY    70  64  82 SE10      29.99F
$$

NEZ050>053-065>068-078-088>093-041800-
SOUTHEAST NEBRASKA

CITY           SKY/WX    TMP DP  RH WIND       PRES   REMARKS
LINCOLN        PTSUNNY   77  68  73 SE15      29.98F
OMAHA EPPLEY   CLOUDY    70  63  78 CALM      29.98F
BEATRICE       PTSUNNY   77  66  69 SE15      29.99F
FALLS CITY     PTSUNNY   76  68  76 E9        30.01F
NEBRASKA CITY  CLOUDY    73  68  84 E9        30.01F
$$

NEZ044-045-051>053-067-041800-
OMAHA AREA

CITY           SKY/WX    TMP DP  RH WIND       PRES   REMARKS
OMAHA EPPLEY   CLOUDY    70  63  78 CALM      29.98F
BLAIR          CLOUDY    67  64  90 SE7       29.99F
FREMONT        CLOUDY    69  64  85 SE14      29.96F
MILLARD        CLOUDY    69  65  87 CALM      30.00R
OFFUTT AFB     CLOUDY    69  65  88 SE10      29.98S
WAHOO          PTSUNNY   69  66  89 SE8       29.98F
$$



USA.gov is the U.S. government's official web portal to all federal, state and local government web resources and services.